This is the latest recevied weather packets stored in our database for station/object DL4JCP-6. If no packets are shown the sender has not sent any weather packets the latest 1 day(s).
| Time | Temp. | Humidity | Pressure | Rain* | Wind** | Luminosity | Snow |
|---|---|---|---|---|---|---|---|
| 1778000590 | 14.44° C | 93% | 1007.3 hPa | 1.27 mm | 1.79 m/s, 24° | - | - |
| 1778000291 | 14.44° C | 93% | 1007.3 hPa | 1.27 mm | 1.34 m/s, 20° | - | - |
| 1777999992 | 14.44° C | 93% | 1007.4 hPa | 1.27 mm | 1.34 m/s, 19° | - | - |
| 1777999694 | 14.44° C | 93% | 1007.4 hPa | 1.27 mm | 1.34 m/s, 5° | - | - |
| 1777999691 | 14.44° C | 93% | 1007.4 hPa | 1.27 mm | 1.34 m/s, 5° | - | - |
| 1777999391 | 14.44° C | 92% | 1007.3 hPa | 1.27 mm | 1.79 m/s, 21° | - | - |
| 1777999091 | 14.44° C | 92% | 1007.5 hPa | 1.27 mm | 1.34 m/s, 20° | - | - |
| 1777998791 | 14.44° C | 92% | 1007.6 hPa | 1.27 mm | 1.34 m/s, 5° | - | - |
| 1777998791 | 14.44° C | 92% | 1007.6 hPa | 1.27 mm | 1.34 m/s, 5° | - | - |
| 1777998491 | 14.44° C | 92% | 1007.6 hPa | 1.27 mm | 0.89 m/s, 331° | - | - |
| 1777998190 | 14.44° C | 91% | 1007.7 hPa | 1.02 mm | 0.45 m/s, 331° | - | - |
| 1777997891 | 15° C | 91% | 1007.7 hPa | 1.02 mm | 1.34 m/s, 309° | - | - |
| 1777997890 | 15° C | 91% | 1007.7 hPa | 1.02 mm | 0.89 m/s, 309° | - | - |
| 1777997590 | 15° C | 91% | 1008.2 hPa | 0.76 mm | 0.45 m/s, 293° | - | - |
| 1777997291 | 15° C | 91% | 1008.2 hPa | 0.51 mm | 1.34 m/s, 312° | - | - |
| 1777996991 | 15° C | 91% | 1008 hPa | 0 mm | 0.45 m/s, 336° | - | - |
| 1777996991 | 15° C | 91% | 1008 hPa | 0 mm | 0.89 m/s, 336° | - | - |
| 1777996691 | 15.56° C | 90% | 1008 hPa | 0 mm | 0.45 m/s, 33° | - | - |
| 1777996390 | 15.56° C | 90% | 1008 hPa | 0 mm | 1.34 m/s, 9° | - | - |
| 1777996091 | 15.56° C | 90% | 1007.9 hPa | 0 mm | 1.79 m/s, 17° | - | - |
| 1777996090 | 15.56° C | 90% | 1007.9 hPa | 0 mm | 1.79 m/s, 17° | - | - |
| 1777995790 | 15.56° C | 90% | 1008 hPa | 0 mm | 0.89 m/s, 19° | - | - |
| 1777995490 | 15.56° C | 89% | 1008 hPa | 0 mm | 1.79 m/s, 11° | - | - |
| 1777995193 | 15.56° C | 90% | 1008 hPa | 0 mm | 1.79 m/s, 51° | - | - |
| 1777995190 | 15.56° C | 90% | 1008 hPa | 0 mm | 2.24 m/s, 51° | - | - |
* Rain latest hour (hover to see other rain measurements)
** Current wind speed in m/s (hover to see current wind gust speed)